sat.trackr.live / text

‹ back to catalog

CATSAT

NORAD 60246 · 2024-125J

PAYLOAD ACTIVE UNKNOWN

§ Identity

Operator
Country
US
Launch date
2024-07-04
Launch site
AFWTR
Launch vehicle
Mass (kg)
RCS (m²)

External: N2YO · Heavens-Above · Gunter

§ Orbital elements

Epoch: 2026-09-22T13:40:57.117792Z

Period
91.53 min
Inclination
97.1936°
Eccentricity
0.0015349
Mean motion
15.73188159 rev/d
Perigee alt
339.5 km
Apogee alt
360.1 km
Semi-major
6,727.9 km
B*
7.2689e-4
RAAN
120.2361°
Arg perigee
169.2561°
Mean anomaly
190.9034°
Rev number
12,262

§ Raw data

CATSAT1 60246U 24125J   26265.57010553  .00101252  00000+0  72689-3 0  99942 60246  97.1936 120.2361 0015349 169.2561 190.9034 15.73188159122629

JSON: /api/v1/satellites/60246 · /tle

For live sub-satellite position, see the globe view (requires WebGL).

§ Visibility from observer

Set your observer location to see the next 7 days of passes ≥ 10°. The values pass through the URL so the page stays shareable.

No JS? Fill the form by hand. The geolocation button needs JavaScript.

§ Radio — SatNOGS DB

ModeDescriptionDownlinkUplink
FSK AX.100 Mode 5 Mode U - FSK2k4 437.185 MHz
FSK AX.100 Mode 5 Mode U - FSK38k4 (inactive) 437.185 MHz
FSK AX.100 Mode 5 Mode U - FSK9k6 (inactive) 437.185 MHz
FSK AX.100 Mode 5 Mode U - GMSK4k8 - Transmitter Frequency after Reset (inactive) 437.250 MHz

4 transmitters · refreshed weekly from db.satnogs.org